TimeEST,TemperatureF,Dew PointF,Humidity,Sea Level PressureIn,VisibilityMPH,Wind Direction,Wind SpeedMPH,Gust SpeedMPH,PrecipitationIn,Events,Conditions,WindDirDegrees,DateUTC
12:15 AM,40.1,34.9,82,29.98,10.0,NNE,11.5,17.3,N/A,,Overcast,20,2013-01-18 05:15:00
12:35 AM,40.1,34.9,82,30.01,10.0,North,12.7,-,N/A,,Mostly Cloudy,360,2013-01-18 05:35:00
12:55 AM,38.8,33.8,82,30.06,10.0,North,13.8,17.3,0.01,,Overcast,350,2013-01-18 05:55:00
1:15 AM,38.8,33.8,82,30.08,10.0,NW,10.4,17.3,N/A,,Unknown,320,2013-01-18 06:15:00
1:35 AM,37.6,32.4,81,30.12,10.0,NNW,9.2,18.4,N/A,Rain,Rain,330,2013-01-18 06:35:00
1:55 AM,37.6,32.4,81,30.12,10.0,NNW,12.7,-,N/A,Rain,Light Rain,330,2013-01-18 06:55:00
2:15 AM,37.6,32.4,81,30.14,10.0,NNW,9.2,16.1,0.01,Rain,Light Rain,340,2013-01-18 07:15:00
2:35 AM,37.6,32.4,81,30.13,10.0,NNW,6.9,-,0.01,,Overcast,330,2013-01-18 07:35:00
2:55 AM,37.6,32.4,81,30.16,10.0,NW,6.9,-,0.01,,Overcast,320,2013-01-18 07:55:00
3:15 AM,37.6,32.4,81,30.18,10.0,NW,8.1,-,N/A,,Overcast,310,2013-01-18 08:15:00
3:35 AM,37.6,32.4,81,30.19,10.0,NNW,12.7,18.4,N/A,,Overcast,330,2013-01-18 08:35:00
3:55 AM,37.6,32.4,81,30.18,10.0,North,10.4,-,N/A,,Overcast,350,2013-01-18 08:55:00
4:15 AM,37.6,32.4,81,30.20,10.0,NNW,8.1,-,N/A,,Overcast,330,2013-01-18 09:15:00
4:35 AM,37.6,32.4,81,30.21,10.0,NNW,9.2,-,N/A,,Overcast,340,2013-01-18 09:35:00
4:55 AM,37.6,32.4,81,30.23,10.0,NW,6.9,-,N/A,,Overcast,320,2013-01-18 09:55:00
5:15 AM,37.6,32.4,81,30.24,10.0,NNW,4.6,-,N/A,,Overcast,330,2013-01-18 10:15:00
5:35 AM,37.6,32.4,81,30.26,10.0,NW,4.6,-,N/A,,Overcast,310,2013-01-18 10:35:00
5:55 AM,37.6,32.4,81,30.28,10.0,NW,5.8,-,N/A,,Mostly Cloudy,310,2013-01-18 10:55:00
6:15 AM,37.6,32.4,81,30.29,10.0,NW,4.6,-,N/A,,Scattered Clouds,310,2013-01-18 11:15:00
6:35 AM,37.6,32.4,81,30.30,10.0,NW,5.8,-,N/A,,Scattered Clouds,310,2013-01-18 11:35:00
6:55 AM,35.1,30.2,82,30.31,10.0,NNW,4.6,-,N/A,,Scattered Clouds,330,2013-01-18 11:55:00
7:15 AM,35.1,30.2,82,30.32,10.0,NW,3.5,-,N/A,,Mostly Cloudy,310,2013-01-18 12:15:00
7:35 AM,35.1,30.2,82,30.34,10.0,NW,5.8,-,N/A,,Mostly Cloudy,310,2013-01-18 12:35:00
7:55 AM,35.2,30.6,83,30.35,10.0,WNW,6.9,-,N/A,,Mostly Cloudy,300,2013-01-18 12:55:00
8:15 AM,37.6,32.4,81,30.37,10.0,NW,5.8,-,N/A,,Mostly Cloudy,320,2013-01-18 13:15:00
8:35 AM,37.6,32.4,81,30.38,10.0,NW,5.8,-,N/A,,Overcast,310,2013-01-18 13:35:00
8:55 AM,37.6,32.4,81,30.40,10.0,NW,6.9,-,N/A,,Mostly Cloudy,320,2013-01-18 13:55:00
9:15 AM,37.6,32.4,81,30.42,10.0,WNW,4.6,-,N/A,,Mostly Cloudy,300,2013-01-18 14:15:00
9:35 AM,37.6,32.4,81,30.44,10.0,NW,4.6,-,N/A,,Overcast,320,2013-01-18 14:35:00
9:55 AM,37.6,32.4,81,30.45,10.0,North,6.9,-,N/A,,Mostly Cloudy,350,2013-01-18 14:55:00
10:15 AM,39.9,34.2,80,30.46,10.0,North,5.8,-,N/A,,Clear,350,2013-01-18 15:15:00
10:35 AM,40.1,33.3,77,30.46,10.0,North,9.2,-,N/A,,Clear,350,2013-01-18 15:35:00
10:55 AM,42.8,34.9,74,30.45,10.0,NW,9.2,-,N/A,,Clear,320,2013-01-18 15:55:00
11:15 AM,42.8,33.1,69,30.45,10.0,North,9.2,-,N/A,,Clear,350,2013-01-18 16:15:00
11:35 AM,43.7,32.2,64,30.45,10.0,North,15.0,-,N/A,,Clear,350,2013-01-18 16:35:00
11:55 AM,44.1,31.1,60,30.44,10.0,North,10.4,-,N/A,,Clear,360,2013-01-18 16:55:00
12:15 PM,45.1,30.2,56,30.43,10.0,North,11.5,19.6,N/A,,Clear,360,2013-01-18 17:15:00
12:35 PM,45.3,29.7,54,30.42,10.0,North,10.4,-,N/A,,Clear,10,2013-01-18 17:35:00
12:55 PM,46.0,28.2,50,30.42,10.0,NNE,10.4,-,N/A,,Clear,30,2013-01-18 17:55:00
1:15 PM,46.4,27.1,47,30.43,10.0,NNE,9.2,16.1,N/A,,Clear,20,2013-01-18 18:15:00
1:35 PM,46.4,24.4,42,30.44,10.0,North,11.5,-,N/A,,Clear,10,2013-01-18 18:35:00
1:55 PM,46.6,23.0,39,30.44,10.0,NNE,9.2,17.3,N/A,,Clear,20,2013-01-18 18:55:00
2:15 PM,46.6,22.8,39,30.45,10.0,NNW,8.1,-,N/A,,Clear,340,2013-01-18 19:15:00
2:35 PM,47.1,18.7,32,30.45,10.0,NNE,13.8,-,N/A,,Clear,30,2013-01-18 19:35:00
2:55 PM,46.4,21.7,38,30.46,10.0,North,9.2,-,N/A,,Clear,360,2013-01-18 19:55:00
3:15 PM,46.4,21.4,37,30.46,10.0,North,9.2,-,N/A,,Clear,360,2013-01-18 20:15:00
3:35 PM,46.0,22.6,40,30.46,10.0,North,10.4,-,N/A,,Clear,360,2013-01-18 20:35:00
3:55 PM,45.9,21.6,38,30.47,10.0,NNE,6.9,-,N/A,,Clear,20,2013-01-18 20:55:00
4:15 PM,45.9,22.1,39,30.47,10.0,NNE,9.2,-,N/A,,Clear,20,2013-01-18 21:15:00
4:35 PM,45.1,21.4,39,30.48,10.0,North,8.1,-,N/A,,Clear,360,2013-01-18 21:35:00
4:55 PM,43.9,23.7,45,30.49,10.0,North,6.9,-,N/A,,Clear,360,2013-01-18 21:55:00
5:15 PM,42.8,25.3,50,30.50,10.0,NNE,4.6,-,N/A,,Clear,20,2013-01-18 22:15:00
5:35 PM,42.4,26.4,53,30.50,10.0,NNE,4.6,-,N/A,,Clear,20,2013-01-18 22:35:00
5:55 PM,39.7,27.7,62,30.51,10.0,NNE,4.6,-,N/A,,Clear,20,2013-01-18 22:55:00
6:15 PM,40.1,26.2,58,30.52,10.0,NE,3.5,-,N/A,,Clear,40,2013-01-18 23:15:00
6:35 PM,38.7,28.9,68,30.53,10.0,Calm,Calm,-,N/A,,Clear,0,2013-01-18 23:35:00
6:55 PM,37.6,28.9,71,30.54,10.0,ENE,3.5,-,N/A,,Clear,60,2013-01-18 23:55:00
7:15 PM,37.6,29.1,72,30.54,10.0,NE,3.5,-,N/A,,Clear,50,2013-01-19 00:15:00
7:35 PM,37.6,30.7,76,30.55,10.0,Calm,Calm,-,N/A,,Clear,0,2013-01-19 00:35:00
7:55 PM,37.0,30.2,76,30.55,10.0,Calm,Calm,-,N/A,,Clear,0,2013-01-19 00:55:00
8:15 PM,35.1,28.2,76,30.55,10.0,ENE,3.5,-,N/A,,Clear,70,2013-01-19 01:15:00
8:35 PM,33.4,28.2,81,30.56,10.0,Calm,Calm,-,N/A,,Clear,0,2013-01-19 01:35:00
8:55 PM,32.5,27.5,82,30.55,10.0,NNE,3.5,-,N/A,,Clear,30,2013-01-19 01:55:00
9:15 PM,32.5,27.9,83,30.55,10.0,NE,4.6,-,N/A,,Clear,50,2013-01-19 02:15:00
9:35 PM,32.5,26.2,78,30.55,10.0,NE,4.6,-,N/A,,Clear,40,2013-01-19 02:35:00
9:55 PM,32.5,25.7,76,30.55,10.0,ENE,3.5,-,N/A,,Clear,60,2013-01-19 02:55:00
10:35 PM,32.5,26.2,78,30.54,10.0,Calm,Calm,-,N/A,,Clear,0,2013-01-19 03:35:00
10:55 PM,32.5,27.1,80,30.53,10.0,Calm,Calm,-,N/A,,Clear,0,2013-01-19 03:55:00
11:15 PM,30.9,26.1,82,30.53,10.0,Calm,Calm,-,N/A,,Clear,0,2013-01-19 04:15:00
11:35 PM,32.2,27.1,82,30.52,10.0,Calm,Calm,-,N/A,,Clear,0,2013-01-19 04:35:00
11:55 PM,31.1,26.1,82,30.52,10.0,Calm,Calm,-,N/A,,Clear,0,2013-01-19 04:55:00